Effective Sunday, March 17, 2024, the National Weather Service National Data Buoy Center will discontinue its Dial-A-Buoy Interactive Voice Response system. For more information, see Service Change Notice 24-06 (PDF).

Station 44065 (LLNR 725) - New York Harbor Entrance - 15 NM SE of Breezy Point , NY Image indicating link to RSS feed of recent meteorological observations for station 44065

NY Harbor Approach (Ambrose Light)


Conditions at 44065 as of
(8:40 pm EST on 02/29/2024)
0140 GMT on 03/01/2024:
     

Click on the graph icon in the table below to see a time series plot of the last five days of that observation.

5-day plot - Wind Speed Wind Speed (WSPD): 15.5 kts
5-day plot - Wind Gust Wind Gust (GST): 21.4 kts
5-day plot - Atmospheric Pressure Atmospheric Pressure (PRES):30.37 in
5-day plot - Water Temperature Water Temperature (WTMP): 43.0 °F
5-day plot - Wind Speed at 10 Meters Wind Speed at 10 meters (WSPD10M): 17.5 kts
5-day plot - Wind Speed at 20 Meters Wind Speed at 20 meters (WSPD20M): 19.4 kts
5-day plot -  Wind Speed, Wind Gust and Atmospheric Pressure Combined plot of Wind Speed, Gust, and Air Pressure
Supplemental Measurements
Highest 1-minute Wind Speed
Time (EST)5-day plot - 1-Minute Wind Speed WSPD 5-day plot - 1-Minute Wind Direction WDIR
8:31 pm 19.4 kts-
Previous observations
TIME
(EST)
5-day plot - Wind Direction
WDIR
 
5-day plot - Wind Speed
WSPD
kts
5-day plot - Wind Gust
GST
kts
5-day plot - Wave Height
WVHT
ft
5-day plot - Dominant Wave Period
DPD
sec
5-day plot - Average Wave Period
APD
sec
5-day plot - Mean Wave Direction
MWD
 
5-day plot - Atmospheric Pressure
PRES
in
5-day plot - Pressure Tendency
PTDY
in
5-day plot - Air Temperature
ATMP
°F
5-day plot - Water Temperature
WTMP
°F
5-day plot - Dew Point
DEWP
°F
5-day plot - Salinity
SAL
psu
5-day plot - Visibility
VIS
nmi
5-day plot - Tide (above MLLW)
TIDE
ft
2024-02-29 08:30 pm- 17.5 21.4----30.36-- 43.0----
2024-02-29 08:20 pm- 17.5 23.3 3.3 43.8WNW30.36-- 43.0----
2024-02-29 08:10 pm- 17.5 23.3 3.3-3.8WNW30.35-- 43.0----
2024-02-29 08:00 pm- 17.5 21.4----30.35+0.08- 43.0----
2024-02-29 07:50 pm- 17.5 21.4 3.3 43.8WNW30.35-- 43.2----
2024-02-29 07:40 pm- 17.5 25.3----30.35-- 43.2----
2024-02-29 07:30 pm- 19.4 23.3----30.35-- 43.2----
2024-02-29 07:20 pm- 19.4 23.3 3.6 43.9WNW30.34-- 43.2----
2024-02-29 07:10 pm- 19.4 25.3 3.6-3.9WNW30.34-- 43.2----
2024-02-29 07:00 pm- 21.4 25.3----30.33+0.07- 43.2----
2024-02-29 06:50 pm- 21.4 27.2 3.6 43.9WNW30.33-- 43.2----
2024-02-29 06:40 pm- 21.4 27.2----30.32-- 43.2----
2024-02-29 06:00 pm- 23.3 27.2 3.6-3.8WNW30.29+0.05- 43.2----
2024-02-29 05:50 pm- 21.4 27.2 3.6 43.9WNW30.29-- 43.3----
2024-02-29 05:40 pm- 21.4 27.2----30.29-- 43.3----
2024-02-29 05:30 pm- 23.3 29.1----30.28-- 43.3----
2024-02-29 05:20 pm- 23.3 29.1 3.6 43.8WNW30.28-- 43.3----
2024-02-29 05:10 pm- 23.3 27.2 3.6-3.8WNW30.27-- 43.3----
2024-02-29 05:00 pm- 21.4 25.3----30.27+0.03- 43.3----
2024-02-29 04:50 pm- 21.4 27.2 3.3 43.8WNW30.27-- 43.3----
2024-02-29 04:40 pm- 21.4 25.3----30.27-- 43.3----
2024-02-29 04:30 pm- 19.4 25.3----30.26-- 43.3----
2024-02-29 04:20 pm- 21.4 27.2 3.6 43.9WNW30.26-- 43.3----
2024-02-29 04:10 pm- 19.4 25.3----30.26-- 43.3----
2024-02-29 04:00 pm- 19.4 25.3----30.26+0.01- 43.3----
2024-02-29 03:50 pm- 21.4 25.3 3.3 103.8 SE30.26-- 43.3----
2024-02-29 03:40 pm- 19.4 25.3----30.26-- 43.3----
2024-02-29 03:30 pm- 19.4 27.2----30.25-- 43.3----
2024-02-29 03:20 pm- 21.4 25.3 3.3 44.0WNW30.25-- 43.3----
2024-02-29 03:10 pm- 19.4 23.3 3.3-4.0WNW30.25-- 43.3----
2024-02-29 03:00 pm- 19.4 23.3----30.24-0.01- 43.3----
2024-02-29 02:50 pm- 21.4 27.2 3.6 114.0 SE30.24-- 43.2----
2024-02-29 02:40 pm- 21.4 25.3----30.24-- 43.2----
2024-02-29 02:20 pm- 21.4 27.2 3.3 104.0SSE30.24-- 43.2----
2024-02-29 02:10 pm- 19.4 25.3 3.3-4.0SSE30.24-- 43.2----
2024-02-29 02:00 pm- 19.4 29.1----30.24-0.01- 43.2----
2024-02-29 01:50 pm- 19.4 23.3 3.3 43.9WNW30.24-- 43.2----
2024-02-29 01:40 pm- 19.4 25.3----30.24-- 43.2----
2024-02-29 01:30 pm- 19.4 23.3----30.24-- 43.2----
2024-02-29 01:20 pm- 19.4 25.3 3.6 94.1SSE30.24-- 43.2----
2024-02-29 01:10 pm- 19.4 23.3 3.6-4.1SSE30.24-- 43.2----
2024-02-29 01:00 pm- 19.4 25.3----30.24-0.02- 43.0----
2024-02-29 12:50 pm- 21.4 25.3 3.6 94.1 SE30.24-- 43.0----
2024-02-29 12:40 pm- 19.4 25.3----30.25-- 43.0----
2024-02-29 12:30 pm- 19.4 23.3----30.26-- 43.0----
2024-02-29 12:20 pm- 17.5 21.4 3.9 104.1SSE30.26-- 43.0----
2024-02-29 12:10 pm- 19.4 25.3----30.26-- 43.0----
2024-02-29 12:00 pm- 17.5 25.3----30.26+0.00- 43.0----
2024-02-29 11:50 am- 19.4 36.9 3.9 44.2WNW30.26-- 43.0----
2024-02-29 11:40 am- 21.4 27.2----30.26-- 43.0----
2024-02-29 11:30 am- 21.4 27.2----30.26-- 42.8----
2024-02-29 11:20 am- 21.4 27.2 4.3 44.2 NW30.26-- 42.8----
2024-02-29 11:10 am- 21.4 27.2 4.3-4.2 NW30.26-- 42.8----
2024-02-29 11:00 am- 21.4 29.1----30.26+0.03- 42.8----
2024-02-29 10:50 am- 21.4 27.2 3.9 104.3SSE30.27-- 42.8----
2024-02-29 10:40 am- 19.4 27.2 3.9-4.3SSE30.26-- 42.8----
2024-02-29 10:30 am- 19.4 25.3----30.26-- 42.8----
2024-02-29 10:20 am- 21.4 25.3 3.6 44.1WNW30.26-- 42.8----
2024-02-29 10:10 am- 23.3 31.1 3.6-4.1WNW30.26-- 42.8----
2024-02-29 10:00 am- 23.3 33.0----30.27+0.09- 42.8----
2024-02-29 09:50 am- 23.3 29.1 4.3 104.6SSE30.26-- 42.8----
2024-02-29 09:40 am- 19.4 27.2 4.3-4.6SSE30.26-- 42.8----
2024-02-29 09:30 am- 19.4 29.1----30.26-- 42.8----
2024-02-29 09:20 am- 17.5 25.3 3.9 94.2 SE30.26-- 42.6----
2024-02-29 09:10 am- 17.5 21.4 3.9-4.2 SE30.25-- 42.6----
2024-02-29 09:00 am- 17.5 23.3----30.25+0.12- 42.6----
2024-02-29 08:50 am- 19.4 25.3 3.9 104.2 SE30.25-- 42.6----
2024-02-29 08:40 am- 21.4 29.1----30.24-- 42.6----
2024-02-29 08:30 am- 21.4 27.2----30.24-- 42.6----
2024-02-29 08:20 am- 21.4 27.2 3.9 94.2SSE30.24-- 42.6----
2024-02-29 08:10 am- 21.4 27.2 3.9-4.2SSE30.23-- 42.6----
2024-02-29 08:00 am- 21.4 25.3----30.23+0.16- 42.6----
2024-02-29 07:50 am- 19.4 25.3 3.9 104.2SSE30.22-- 42.6----
2024-02-29 07:40 am- 21.4 31.1----30.22-- 42.6----
2024-02-29 07:30 am- 19.4 27.2----30.20-- 42.6----
2024-02-29 07:20 am- 21.4 27.2 4.6 54.4 NW30.20-- 42.6----
2024-02-29 07:10 am- 21.4 27.2 4.6-4.4 NW30.19-- 42.6----
2024-02-29 07:00 am- 21.4 29.1----30.18+0.17- 42.6----
2024-02-29 06:50 am- 21.4 29.1 4.6 104.5SSE30.17-- 42.6----
2024-02-29 06:40 am- 23.3 31.1----30.16-- 42.6----
2024-02-29 06:30 am- 25.3 33.0----30.15-- 42.4----
2024-02-29 06:20 am- 25.3 33.0 4.6 54.5 NW30.14-- 42.4----
2024-02-29 06:10 am- 23.3 31.1 4.6-4.5 NW30.14-- 42.4----
2024-02-29 06:00 am- 25.3 33.0----30.13+0.16- 42.4----
2024-02-29 05:50 am- 23.3 29.1 5.6 54.6 NW30.12-- 42.4----
2024-02-29 05:40 am- 27.2 33.0----30.11-- 42.4----
2024-02-29 05:30 am- 27.2 35.0----30.11-- 42.4----
2024-02-29 05:20 am- 31.1 36.9 5.2 54.5 NW30.10-- 42.4----
2024-02-29 05:10 am- 29.1 36.9 5.2-4.5 NW30.09-- 42.4----
2024-02-29 05:00 am- 33.0 42.7----30.07+0.16- 42.4----
2024-02-29 04:50 am- 27.2 36.9 6.2 54.8 NW30.06-- 42.6----
2024-02-29 04:40 am- 27.2 35.0----30.05-- 42.6----
2024-02-29 04:30 am- 29.1 38.9----30.05-- 42.4----
2024-02-29 04:20 am- 29.1 36.9 5.6 54.6 NW30.03-- 42.4----
2024-02-29 04:10 am- 29.1 36.9 5.6-4.6 NW30.03-- 42.4----
2024-02-29 04:00 am- 29.1 36.9----30.01+0.17- 42.4----
2024-02-29 03:50 am- 27.2 36.9 6.6 54.9WNW30.01-- 42.4----
2024-02-29 03:40 am- 27.2 35.0 6.6-4.9WNW30.00-- 42.4----
2024-02-29 03:30 am- 29.1 36.9----29.99-- 42.4----
2024-02-29 03:20 am- 27.2 35.0 6.2 105.0SSE29.98-- 42.4----
2024-02-29 03:10 am- 27.2 35.0 6.2-5.0SSE29.98-- 42.4----
2024-02-29 03:00 am- 27.2 35.0----29.97+0.21- 42.4----
2024-02-29 02:50 am- 27.2 35.0 6.2 54.7 NW29.96-- 42.4----
2024-02-29 02:40 am- 29.1 36.9 6.2-4.7 NW29.95-- 42.4----
2024-02-29 02:30 am- 29.1 38.9----29.94-- 42.4----
2024-02-29 02:20 am- 29.1 36.9 6.9 54.9 NW29.93-- 42.4----
2024-02-29 02:10 am- 29.1 35.0 6.9-4.9 NW29.93-- 42.4----
2024-02-29 02:00 am- 29.1 38.9----29.91+0.21- 42.4----
2024-02-29 01:50 am- 31.1 38.9 7.2 55.1 NW29.90-- 42.4----
2024-02-29 01:40 am- 33.0 42.7 7.2-5.1 NW29.89-- 42.3----
2024-02-29 01:30 am- 31.1 40.8----29.88-- 42.3----
2024-02-29 01:20 am- 31.1 40.8 7.5 55.0 NW29.86-- 42.3----
2024-02-29 01:10 am- 33.0 44.7 7.5-5.0 NW29.85-- 42.3----
2024-02-29 01:00 am- 31.1 40.8----29.84+0.21- 42.3----
2024-02-29 12:50 am- 29.1 40.8 7.5 105.3SSE29.83-- 42.3----
2024-02-29 12:40 am- 29.1 36.9----29.81-- 42.3----
2024-02-29 12:30 am- 31.1 40.8----29.80-- 42.3----
2024-02-29 12:20 am- 31.1 38.9 7.5 55.1WNW29.78-- 42.3----
2024-02-29 12:10 am- 31.1 42.7 7.5-5.1WNW29.78-- 42.3----
2024-02-29 12:00 am- 31.1 40.8----29.77+0.21- 42.3----
2024-02-28 11:50 pm- 31.1 40.8 7.9 55.2 W29.75-- 42.1----
2024-02-28 11:40 pm- 31.1 40.8----29.75-- 42.1----
2024-02-28 11:30 pm- 31.1 42.7----29.74-- 42.1----
2024-02-28 11:20 pm- 31.1 38.9 8.9 55.4WNW29.74-- 42.1----
2024-02-28 11:10 pm- 29.1 42.7 8.9-5.4WNW29.70-- 42.1----
2024-02-28 11:00 pm- 23.3 31.1----29.71+0.16- 42.1----
2024-02-28 10:50 pm- 27.2 38.9 8.9 95.5SSE29.70-- 42.1----
2024-02-28 10:40 pm- 35.0 46.6 8.9-5.5SSE29.69-- 42.1----
2024-02-28 10:30 pm- 33.0 44.7----29.68-- 42.1----
2024-02-28 10:20 pm- 33.0 44.7 8.9 106.1SSE29.67-- 42.1----
2024-02-28 10:10 pm- 36.9 50.5 8.9-6.1SSE29.66-- 42.1----
2024-02-28 10:00 pm- 29.1 36.9----29.63+0.09- 42.1----
2024-02-28 09:50 pm- 15.5 27.2 8.9 96.3SSE29.62-- 42.1----
2024-02-28 09:40 pm- 19.4 29.1----29.61-- 42.1----
2024-02-28 09:30 pm- 21.4 25.3----29.59-- 42.1----
2024-02-28 09:20 pm- 21.4 25.3 8.9 86.2SSE29.58-- 42.1----
2024-02-28 09:10 pm- 21.4 25.3 8.9-6.2SSE29.57-- 42.1----
2024-02-28 09:00 pm- 21.4 25.3----29.56-0.01- 42.1----
2024-02-28 08:50 pm- 21.4 25.3 9.5 86.3SSE29.56-- 42.1----

Detailed Wave Summary
for 44065 as of
(8:10 pm EST on 02/29/2024)
0110 GMT on 03/01/2024:

These wave data are displayed in rounded times.

     

Click on the graph icon in the table below to see a time series plot of the last five days of that observation.

5-day plot - Significant Wave Height Significant Wave Height (WVHT): 3.3 ft
5-day plot - Swell Height Swell Height (SwH): 1.6 ft
5-day plot - Swell Period Swell Period (SwP): 10.0 sec
5-day plot - Swell Direction Swell Direction (SwD): SE
5-day plot - Wind Wave Height Wind Wave Height (WWH): 2.6 ft
5-day plot - Wind Wave Period Wind Wave Period (WWP): 4.2 sec
5-day plot - Wind Wave Direction Wind Wave Direction (WWD):WNW
5-day plot - Wave Steepness Wave Steepness (STEEPNESS):VERY_STEEP
5-day plot - Average Wave Period Average Wave Period (APD): 3.8 sec
Previous observations
TIME
(EST)
5-day plot - Wave Height
WVHT
ft
5-day plot - Swell Height
SwH
ft
5-day plot - Swell Period
SwP
sec
5-day plot - Swell Direction
SwD
 
5-day plot - Wind Wave Height
WWH
ft
5-day plot - Wind Wave Period
WWP
sec
5-day plot - Wind Wave Direction
WWD
 
5-day plot - Wave Steepness
STEEPNESS
 
5-day plot - Average Wave Period
APD
sec
2024-02-29 07:40 pm 3.3 1.6 9.1SSE 2.6 4.0 WNWVERY_STEEP 3.8
2024-02-29 07:10 pm 3.6 1.6 9.1 SE 3.3 4.2 WNWVERY_STEEP 3.9
2024-02-29 06:40 pm 3.6 1.6 9.1 SE 3.3 4.2 WNWVERY_STEEP 3.9
2024-02-29 06:10 pm 3.6 1.6 10.0SSE 3.3 4.0 WNWVERY_STEEP 3.8
2024-02-29 05:40 pm 3.6 1.6 10.0 SE 3.0 4.0 WNWVERY_STEEP 3.9
2024-02-29 05:10 pm 3.6 1.6 9.1SSE 3.0 4.0 WNWVERY_STEEP 3.8
2024-02-29 04:40 pm 3.3 1.6 9.1SSE 3.0 3.8 WNWVERY_STEEP 3.8
2024-02-29 04:10 pm 3.6 2.0 10.0SSE 3.0 3.8 WNWVERY_STEEP 3.9
2024-02-29 03:40 pm 3.3 1.6 10.0 SE 3.0 3.8 WNW AVERAGE 3.8
2024-02-29 03:10 pm 3.3 2.0 10.0SSE 3.0 3.8 WNWVERY_STEEP 4.0
2024-02-29 02:40 pm 3.6 2.0 10.8 SE 3.0 3.7 NW AVERAGE 4.0
2024-02-29 02:10 pm 3.3 2.0 10.0SSE 2.6 4.0 NW AVERAGE 4.0
2024-02-29 01:40 pm 3.3 2.0 9.1 SE 2.6 3.7 WNWVERY_STEEP 3.9
2024-02-29 01:10 pm 3.6 2.0 9.1SSE 3.0 4.0 NW AVERAGE 4.1
2024-02-29 12:40 pm 3.6 2.3 9.1 SE 3.0 4.0 NW AVERAGE 4.1
2024-02-29 12:10 pm 3.9 2.0 10.0SSE 3.3 4.3 NW AVERAGE 4.1
2024-02-29 11:40 am 3.9 2.3 10.0SSE 3.3 4.2 WNWVERY_STEEP 4.2
2024-02-29 11:10 am 4.3 2.3 10.0 SE 3.6 4.2 NWVERY_STEEP 4.2
2024-02-29 10:40 am 3.9 2.6 10.0SSE 3.3 3.8 WNW AVERAGE 4.3
2024-02-29 10:10 am 3.6 2.0 10.0SSE 3.0 4.2 WNWVERY_STEEP 4.1
2024-02-29 09:40 am 4.3 3.0 10.0SSE 3.0 3.7 WNW SWELL 4.6
2024-02-29 09:10 am 3.9 2.6 9.1 SE 3.3 4.0 NW AVERAGE 4.2
2024-02-29 08:40 am 3.9 2.6 10.0 SE 3.3 4.2 NW AVERAGE 4.2
2024-02-29 08:10 am 3.9 2.3 9.1SSE 3.3 3.8 NW AVERAGE 4.2
2024-02-29 07:40 am 3.9 2.3 10.0SSE 3.3 4.0 WNW AVERAGE 4.2
2024-02-29 07:10 am 4.6 2.6 10.0SSE 3.6 4.5 NWVERY_STEEP 4.4
2024-02-29 06:40 am 4.6 2.6 10.0SSE 3.9 4.8 WNW AVERAGE 4.5
2024-02-29 06:10 am 4.6 2.3 10.0 SE 3.9 5.0 NWVERY_STEEP 4.5
2024-02-29 05:40 am 5.6 2.3 10.0SSE 5.2 5.0 NWVERY_STEEP 4.6
2024-02-29 05:10 am 5.2 2.6 10.0SSE 4.6 4.8 NWVERY_STEEP 4.5
2024-02-29 04:40 am 6.2 2.6 10.0 SE 5.6 5.0 NWVERY_STEEP 4.8
2024-02-29 04:10 am 5.6 2.6 10.0SSE 5.2 5.0 NWVERY_STEEP 4.6
2024-02-29 03:40 am 6.6 3.6 10.0SSE 5.6 5.0 WNWVERY_STEEP 4.9
2024-02-29 03:10 am 6.2 3.3 10.0SSE 5.2 5.3 WNW AVERAGE 5.0
2024-02-29 02:40 am 6.2 2.3 10.8SSE 5.6 5.0 NWVERY_STEEP 4.7
2024-02-29 02:10 am 6.9 3.3 9.1SSE 5.9 5.3 NWVERY_STEEP 4.9
2024-02-29 01:40 am 7.2 3.3 9.1SSE 6.6 5.3 NWVERY_STEEP 5.1
2024-02-29 01:10 am 7.5 3.6 10.0 S 6.6 4.8 NWVERY_STEEP 5.0
2024-02-29 12:40 am 7.5 3.9 10.0SSE 6.6 5.3 WNW AVERAGE 5.3
2024-02-29 12:10 am 7.5 3.9 9.1SSE 6.2 4.8 WNWVERY_STEEP 5.1
2024-02-28 11:40 pm 7.9 3.3 9.1SSE 7.2 5.3 WVERY_STEEP 5.2
2024-02-28 11:10 pm 8.9 3.3 10.8SSE 8.2 5.3 WNWVERY_STEEP 5.4
2024-02-28 10:40 pm 8.9 5.2 9.1SSE 7.2 7.1 SSE AVERAGE 5.5
2024-02-28 10:10 pm 8.9 7.5 10.0SSE 4.6 6.2 S AVERAGE 6.1
2024-02-28 09:40 pm 8.9 4.9 9.1SSE 7.5 7.7 SSE AVERAGE 6.3
2024-02-28 09:10 pm 8.9 6.2 8.3SSE 6.6 5.9 S STEEP 6.2

Plot of wave energy versus frequency (and period)